User: anonymous   Login
Location: Remedello Sotto
(45.2500°N, 10.3667°E)
Time: 21:19:44
(UTC+00:00)
Language:

CZ-4 R/B - Orbit

View from above orbital plane
View from above orbital plane
View from above satellite
View from above satellite

Ground track
Ground track

The orbit data is extracted from the following two-line orbital elements,

1 28414U 04035B   23159.51520074  .00001064  00000-0  10122-3 0  9995
2 28414  97.6921 178.7353 0004784 309.3268  50.7528 14.95517350 21148
Epoch (UTC): 08 June 2023 12:21:53
Eccentricity: 0.0004784
inclination: 97.6921°
perigee height: 577 km
apogee height: 584 km
right ascension of ascending node: 178.7353°
argument of perigee: 309.3268°
revolutions per day: 14.95517350
mean anomaly at epoch: 50.7528°
orbit number at epoch: 2114

The dashed part of the orbit path shows where the satellite is in the earth's shadow,  

DLR